sat.trackr.live / text

‹ back to catalog

STARLINK-3882

NORAD 52475 · 2022-049AA

PAYLOAD ACTIVE UNKNOWN

§ Identity

Operator
Country
US
Launch date
2022-05-06
Launch site
AFETR
Launch vehicle
Mass (kg)
RCS (m²)

Purposes: comms

External: N2YO · Heavens-Above · Gunter

§ Orbital elements

Epoch: 2026-09-19T14:29:40.733088Z

Period
93.85 min
Inclination
53.1601°
Eccentricity
0.0001354
Mean motion
15.34389188 rev/d
Perigee alt
461.8 km
Apogee alt
463.7 km
Semi-major
6,840.9 km
B*
2.1581e-5
RAAN
257.5618°
Arg perigee
66.0183°
Mean anomaly
294.0961°
Rev number
24,167

§ Raw data

STARLINK-38821 52475U 22049AA  26262.60394367  .00000353  00000+0  21581-4 0  99972 52475  53.1601 257.5618 0001354  66.0183 294.0961 15.34389188241673

JSON: /api/v1/satellites/52475 · /tle

For live sub-satellite position, see the globe view (requires WebGL).

§ Visibility from observer

Set your observer location to see the next 7 days of passes ≥ 10°. The values pass through the URL so the page stays shareable.

No JS? Fill the form by hand. The geolocation button needs JavaScript.